Mansfield, OH

4:16 AM EDT on March 29, 2017 (GMT -0400)
Mansfield Lahm Regional

Weather History for KMFD - April, 2014

Change the Weather History Date:

Thursday, April 17, 2014

  Actual Average Record
Temperature  
Mean Temperature 49 °F 49 °F  
Max Temperature 64 °F 60 °F 83 °F (1969)
Min Temperature 34 °F 39 °F 21 °F (1946)
Degree Days  
Heating Degree Days 16 16  
Month to date heating degree days 278 320  
Since 1 July heating degree days 6349 5810  
Cooling Degree Days 0 0  
Month to date cooling degree days 2 0  
Year to date cooling degree days 2 1  
Moisture  
Dew Point 28 °F    
Average Humidity 44    
Maximum Humidity 56    
Minimum Humidity 31    
Precipitation  
Precipitation 0.00 in 0.14 in 0.82 in (1992)
Month to date precipitation 3.98 2.38  
Year to date precipitation 10.15 11.03  
Snow  
Snow 0.00 in 0.10 in - ()
Month to date snowfall 1.0 2.1  
Since 1 July snowfall 65.4 47.8  
Snow Depth 0.00 in    
Sea Level Pressure  
Sea Level Pressure 30.34 in    
Wind  
Wind Speed 11 mph (SSE)    
Max Wind Speed 22 mph    
Max Gust Speed 29 mph    
Visibility 10 miles    
Events      
T = Trace of Precipitation, MM = Missing Value Source: NWS Daily Summary

Daily Weather History Graph

Daily Weather History Graph

Search for Another Location

Airport or City:

Trip Planner

Search our weather history database for the weather conditions in past years. The results will help you decide how hot, cold, wet, or windy it might be!

Date:

Astronomy

Apr. 17, 2014 Rise Set
Actual Time 6:48 AM EDT 8:11 PM EDT
Civil Twilight 6:19 AM EDT 8:40 PM EDT
Nautical Twilight 5:45 AM EDT 9:14 PM EDT
Astronomical Twilight 5:09 AM EDT 9:51 PM EDT
Moon 10:57 PM EDT (4/17) 8:18 AM EDT (4/17)
Length of Visible Light 14h 20m
Length of Day
13h 23m
Waning Gibbous, 94% of the Moon is Illuminated
Apr 17
Waning Gibbous
Apr 22
Last Quarter
Apr 29
New
May 6
First Quarter
May 14
Full

Hourly Weather History & Observations

Time (EDT) Temp. Windchill Dew Point Humidity Pressure Visibility Wind Dir Wind Speed Gust Speed Precip Events Conditions
12:52 AM 36.0 °F 27.5 °F 19.0 °F 50% 30.37 in 10.0 mi ESE 12.7 mph - N/A   Clear
1:52 AM 35.1 °F 27.9 °F 19.0 °F 52% 30.35 in 10.0 mi ESE 9.2 mph - N/A   Clear
2:52 AM 35.1 °F 28.6 °F 19.0 °F 52% 30.34 in 10.0 mi SE 8.1 mph - N/A   Clear
3:52 AM 36.0 °F 28.0 °F 19.0 °F 50% 30.33 in 10.0 mi SE 11.5 mph - N/A   Clear
4:52 AM 35.1 °F 26.4 °F 19.0 °F 52% 30.34 in 10.0 mi SE 12.7 mph - N/A   Clear
5:52 AM 35.1 °F 26.4 °F 19.9 °F 54% 30.35 in 10.0 mi SE 12.7 mph - N/A   Clear
6:52 AM 35.1 °F 26.4 °F 21.0 °F 57% 30.36 in 10.0 mi SE 12.7 mph - N/A   Clear
7:52 AM 37.9 °F 30.0 °F 21.9 °F 53% 30.37 in 10.0 mi SSE 12.7 mph - N/A   Clear
8:52 AM 43.0 °F 35.7 °F 25.0 °F 49% 30.38 in 10.0 mi SSE 15.0 mph - N/A   Clear
9:52 AM 46.9 °F - 27.0 °F 46% 30.38 in 10.0 mi South 17.3 mph 23.0 mph N/A   Clear
10:52 AM 51.1 °F - 30.0 °F 44% 30.38 in 10.0 mi South 11.5 mph - N/A   Clear
11:52 AM 55.0 °F - 32.0 °F 42% 30.38 in 10.0 mi South 13.8 mph - N/A   Clear
12:52 PM 57.2 °F - 32.0 °F 38% 30.35 in 10.0 mi SSW 9.2 mph - N/A   Clear
1:52 PM 61.0 °F - 34.0 °F 36% 30.35 in 10.0 mi SSW 11.5 mph - N/A   Clear
2:52 PM 62.1 °F - 33.1 °F 34% 30.34 in 10.0 mi South 16.1 mph 21.9 mph N/A   Clear
3:52 PM 63.0 °F - 34.0 °F 34% 30.31 in 10.0 mi SSW 18.4 mph 27.6 mph N/A   Clear
4:52 PM 64.0 °F - 34.0 °F 33% 30.30 in 10.0 mi SSW 15.0 mph 24.2 mph N/A   Clear
5:52 PM 63.0 °F - 34.0 °F 34% 30.30 in 10.0 mi South 11.5 mph - N/A   Clear
6:52 PM 62.1 °F - 33.1 °F 34% 30.30 in 10.0 mi South 11.5 mph - N/A   Clear
7:52 PM 57.9 °F - 34.0 °F 41% 30.30 in 10.0 mi South 10.4 mph - N/A   Clear
8:52 PM 54.0 °F - 30.9 °F 41% 30.30 in 10.0 mi SSE 4.6 mph - N/A   Clear
9:52 PM 50.0 °F - 32.0 °F 50% 30.33 in 10.0 mi South 3.5 mph - N/A   Clear
10:52 PM 53.1 °F - 30.9 °F 43% 30.32 in 10.0 mi Calm Calm - N/A   Clear
11:52 PM 48.9 °F - 33.1 °F 54% 30.30 in 10.0 mi SSE 5.8 mph - N/A   Clear